Year,Month,Day,Hour,Minute,Value (Times are PST for temperature in C)
2017,04,03,00,00,2.50
2017,04,03,00,01,2.50
2017,04,03,00,02,2.50
2017,04,03,00,03,2.50
2017,04,03,00,04,2.50
2017,04,03,00,05,2.50
2017,04,03,00,06,2.50
2017,04,03,00,07,2.50
2017,04,03,00,08,2.40
2017,04,03,00,09,2.40
2017,04,03,00,10,2.40
2017,04,03,00,11,2.40
2017,04,03,00,12,2.40
2017,04,03,00,13,2.30
2017,04,03,00,14,2.30
2017,04,03,00,15,2.20
2017,04,03,00,16,2.20
2017,04,03,00,17,2.20
2017,04,03,00,18,2.10
2017,04,03,00,19,2.10
2017,04,03,00,20,2.10
2017,04,03,00,21,2.10
2017,04,03,00,22,2.00
2017,04,03,00,23,2.00
2017,04,03,00,24,2.00
2017,04,03,00,25,2.00
2017,04,03,00,26,1.90
2017,04,03,00,27,1.90
2017,04,03,00,28,1.90
2017,04,03,00,29,1.90
2017,04,03,00,30,1.90
2017,04,03,00,31,1.80
2017,04,03,00,32,1.80
2017,04,03,00,33,1.80
2017,04,03,00,34,1.80
2017,04,03,00,35,1.80
2017,04,03,00,36,1.70
2017,04,03,00,37,1.70
2017,04,03,00,38,1.70
2017,04,03,00,39,1.70
2017,04,03,00,40,1.70
2017,04,03,00,41,1.70
2017,04,03,00,42,1.70
2017,04,03,00,43,1.60
2017,04,03,00,44,1.60
2017,04,03,00,45,1.60
2017,04,03,00,46,1.60
2017,04,03,00,47,1.60
2017,04,03,00,48,1.60
2017,04,03,00,49,1.60
2017,04,03,00,50,1.60
2017,04,03,00,51,1.60
2017,04,03,00,52,1.70
2017,04,03,00,53,1.70
2017,04,03,00,54,1.70
2017,04,03,00,55,1.70
2017,04,03,00,56,1.70
2017,04,03,00,57,1.70
2017,04,03,00,58,1.60
2017,04,03,00,59,1.60
2017,04,03,01,00,1.60
2017,04,03,01,01,1.60
2017,04,03,01,02,1.60
2017,04,03,01,03,1.60
2017,04,03,01,04,1.50
2017,04,03,01,05,1.50
2017,04,03,01,06,1.50
2017,04,03,01,07,1.50
2017,04,03,01,08,1.50
2017,04,03,01,09,1.50
2017,04,03,01,10,1.40
2017,04,03,01,11,1.40
2017,04,03,01,12,1.40
2017,04,03,01,13,1.40
2017,04,03,01,14,1.40
2017,04,03,01,15,1.40
2017,04,03,01,16,1.40
2017,04,03,01,17,1.40
2017,04,03,01,18,1.40
2017,04,03,01,19,1.40
2017,04,03,01,20,1.40
2017,04,03,01,21,1.40
2017,04,03,01,22,1.30
2017,04,03,01,23,1.30
2017,04,03,01,24,1.30
2017,04,03,01,25,1.30
2017,04,03,01,26,1.30
2017,04,03,01,27,1.30
2017,04,03,01,28,1.30
2017,04,03,01,29,1.30
2017,04,03,01,30,1.30
2017,04,03,01,31,1.30
2017,04,03,01,32,1.30
2017,04,03,01,33,1.30
2017,04,03,01,34,1.30
2017,04,03,01,35,1.30
2017,04,03,01,36,1.30
2017,04,03,01,37,1.30
2017,04,03,01,38,1.30
2017,04,03,01,39,1.30
2017,04,03,01,40,1.20
2017,04,03,01,41,1.20
2017,04,03,01,42,1.20
2017,04,03,01,43,1.20
2017,04,03,01,44,1.20
2017,04,03,01,45,1.20
2017,04,03,01,46,1.20
2017,04,03,01,47,1.10
2017,04,03,01,48,1.10
2017,04,03,01,49,1.10
2017,04,03,01,50,1.10
2017,04,03,01,51,1.10
2017,04,03,01,52,1.10
2017,04,03,01,53,1.10
2017,04,03,01,54,1.10
2017,04,03,01,55,1.10
2017,04,03,01,56,1.10
2017,04,03,01,57,1.10
2017,04,03,01,58,1.10
2017,04,03,01,59,1.10
2017,04,03,02,00,1.10
2017,04,03,02,01,1.10
2017,04,03,02,02,1.00
2017,04,03,02,03,1.10
2017,04,03,02,04,1.10
2017,04,03,02,05,1.10
2017,04,03,02,06,1.10
2017,04,03,02,07,1.10
2017,04,03,02,08,1.00
2017,04,03,02,09,1.00
2017,04,03,02,10,1.00
2017,04,03,02,11,1.00
2017,04,03,02,12,1.00
2017,04,03,02,13,0.90
2017,04,03,02,14,0.90
2017,04,03,02,15,0.90
2017,04,03,02,16,0.90
2017,04,03,02,17,0.90
2017,04,03,02,18,0.90
2017,04,03,02,19,0.90
2017,04,03,02,20,0.80
2017,04,03,02,21,0.80
2017,04,03,02,22,0.80
2017,04,03,02,23,0.80
2017,04,03,02,24,0.80
2017,04,03,02,25,0.80
2017,04,03,02,26,0.80
2017,04,03,02,27,0.80
2017,04,03,02,28,0.80
2017,04,03,02,29,0.80
2017,04,03,02,30,0.80
2017,04,03,02,31,0.80
2017,04,03,02,32,0.80
2017,04,03,02,33,0.80
2017,04,03,02,34,0.80
2017,04,03,02,35,0.80
2017,04,03,02,36,0.80
2017,04,03,02,37,0.80
2017,04,03,02,38,0.80
2017,04,03,02,39,0.80
2017,04,03,02,40,0.80
2017,04,03,02,41,0.80
2017,04,03,02,42,0.80
2017,04,03,02,43,0.80
2017,04,03,02,44,0.80
2017,04,03,02,45,0.80
2017,04,03,02,46,0.80
2017,04,03,02,47,0.70
2017,04,03,02,48,0.70
2017,04,03,02,49,0.70
2017,04,03,02,50,0.70
2017,04,03,02,51,0.70
2017,04,03,02,52,0.70
2017,04,03,02,53,0.70
2017,04,03,02,54,0.70
2017,04,03,02,55,0.70
2017,04,03,02,56,0.70
2017,04,03,02,57,0.70
2017,04,03,02,58,0.70
2017,04,03,02,59,0.70
2017,04,03,03,00,0.70
2017,04,03,03,01,0.70
2017,04,03,03,02,0.70
2017,04,03,03,03,0.70
2017,04,03,03,04,0.70
2017,04,03,03,05,0.70
2017,04,03,03,06,0.70
2017,04,03,03,07,0.70
2017,04,03,03,08,0.70
2017,04,03,03,09,0.70
2017,04,03,03,10,0.70
2017,04,03,03,11,0.70
2017,04,03,03,12,0.70
2017,04,03,03,13,0.70
2017,04,03,03,14,0.70
2017,04,03,03,15,0.70
2017,04,03,03,16,0.70
2017,04,03,03,17,0.70
2017,04,03,03,18,0.70
2017,04,03,03,19,0.70
2017,04,03,03,20,0.60
2017,04,03,03,21,0.60
2017,04,03,03,22,0.60
2017,04,03,03,23,0.60
2017,04,03,03,24,0.60
2017,04,03,03,25,0.60
2017,04,03,03,26,0.60
2017,04,03,03,27,0.60
2017,04,03,03,28,0.60
2017,04,03,03,29,0.60
2017,04,03,03,30,0.60
2017,04,03,03,31,0.60
2017,04,03,03,32,0.60
2017,04,03,03,33,0.60
2017,04,03,03,34,0.60
2017,04,03,03,35,0.60
2017,04,03,03,36,0.60
2017,04,03,03,37,0.60
2017,04,03,03,38,0.60
2017,04,03,03,39,0.60
2017,04,03,03,40,0.60
2017,04,03,03,41,0.60
2017,04,03,03,42,0.60
2017,04,03,03,43,0.60
2017,04,03,03,44,0.60
2017,04,03,03,45,0.50
2017,04,03,03,46,0.50
2017,04,03,03,47,0.50
2017,04,03,03,48,0.40
2017,04,03,03,49,0.40
2017,04,03,03,50,0.40
2017,04,03,03,51,0.40
2017,04,03,03,52,0.40
2017,04,03,03,53,0.40
2017,04,03,03,54,0.40
2017,04,03,03,55,0.40
2017,04,03,03,56,0.40
2017,04,03,03,57,0.40
2017,04,03,03,58,0.40
2017,04,03,03,59,0.40
2017,04,03,04,00,0.40
2017,04,03,04,01,0.40
2017,04,03,04,02,0.40
2017,04,03,04,03,0.40
2017,04,03,04,04,0.30
2017,04,03,04,05,0.30
2017,04,03,04,06,0.30
2017,04,03,04,07,0.30
2017,04,03,04,08,0.30
2017,04,03,04,09,0.30
2017,04,03,04,10,0.30
2017,04,03,04,11,0.30
2017,04,03,04,12,0.30
2017,04,03,04,13,0.30
2017,04,03,04,14,0.30
2017,04,03,04,15,0.30
2017,04,03,04,16,0.30
2017,04,03,04,17,0.30
2017,04,03,04,18,0.30
2017,04,03,04,19,0.30
2017,04,03,04,20,0.30
2017,04,03,04,21,0.30
2017,04,03,04,22,0.30
2017,04,03,04,23,0.30
2017,04,03,04,24,0.30
2017,04,03,04,25,0.30
2017,04,03,04,26,0.30
2017,04,03,04,27,0.30
2017,04,03,04,28,0.30
2017,04,03,04,29,0.30
2017,04,03,04,30,0.30
2017,04,03,04,31,0.30
2017,04,03,04,32,0.30
2017,04,03,04,33,0.30
2017,04,03,04,34,0.30
2017,04,03,04,35,0.30
2017,04,03,04,36,0.30
2017,04,03,04,37,0.30
2017,04,03,04,38,0.30
2017,04,03,04,39,0.20
2017,04,03,04,40,0.20
2017,04,03,04,41,0.20
2017,04,03,04,42,0.20
2017,04,03,04,43,0.20
2017,04,03,04,44,0.20
2017,04,03,04,45,0.20
2017,04,03,04,46,0.20
2017,04,03,04,47,0.20
2017,04,03,04,48,0.20
2017,04,03,04,49,0.20
2017,04,03,04,50,0.20
2017,04,03,04,51,0.20
2017,04,03,04,52,0.20
2017,04,03,04,53,0.20
2017,04,03,04,54,0.20
2017,04,03,04,55,0.20
2017,04,03,04,56,0.20
2017,04,03,04,57,0.20
2017,04,03,04,58,0.20
2017,04,03,04,59,0.20
2017,04,03,05,00,0.20
2017,04,03,05,01,0.20
2017,04,03,05,02,0.20
2017,04,03,05,03,0.20
2017,04,03,05,04,0.20
2017,04,03,05,05,0.20
2017,04,03,05,06,0.20
2017,04,03,05,07,0.20
2017,04,03,05,08,0.20
2017,04,03,05,09,0.20
2017,04,03,05,10,0.20
2017,04,03,05,11,0.20
2017,04,03,05,12,0.20
2017,04,03,05,13,0.20
2017,04,03,05,14,0.20
2017,04,03,05,15,0.20
2017,04,03,05,16,0.20
2017,04,03,05,17,0.20
2017,04,03,05,18,0.20
2017,04,03,05,19,0.20
2017,04,03,05,20,0.20
2017,04,03,05,21,0.20
2017,04,03,05,22,0.20
2017,04,03,05,23,0.20
2017,04,03,05,24,0.20
2017,04,03,05,25,0.20
2017,04,03,05,26,0.20
2017,04,03,05,27,0.20
2017,04,03,05,28,0.20
2017,04,03,05,29,0.20
2017,04,03,05,30,0.20
2017,04,03,05,31,0.10
2017,04,03,05,32,0.10
2017,04,03,05,33,0.10
2017,04,03,05,34,0.10
2017,04,03,05,35,0.10
2017,04,03,05,36,0.10
2017,04,03,05,37,0.10
2017,04,03,05,38,0.10
2017,04,03,05,39,0.10
2017,04,03,05,40,0.10
2017,04,03,05,41,0.10
2017,04,03,05,42,0.10
2017,04,03,05,43,0.10
2017,04,03,05,44,0.10
2017,04,03,05,45,0.10
2017,04,03,05,46,0.10
2017,04,03,05,47,0.10
2017,04,03,05,48,0.10
2017,04,03,05,49,0.10
2017,04,03,05,50,0.10
2017,04,03,05,51,0.10
2017,04,03,05,52,0.10
2017,04,03,05,53,0.10
2017,04,03,05,54,0.10
2017,04,03,05,55,0.10
2017,04,03,05,56,0.10
2017,04,03,05,57,0.10
2017,04,03,05,58,0.10
2017,04,03,05,59,0.10
2017,04,03,06,00,0.10
2017,04,03,06,01,0.10
2017,04,03,06,02,0.10
2017,04,03,06,03,0.10
2017,04,03,06,04,0.00
2017,04,03,06,05,0.00
2017,04,03,06,06,0.00
2017,04,03,06,07,0.00
2017,04,03,06,08,0.00
2017,04,03,06,09,0.00
2017,04,03,06,10,0.00
2017,04,03,06,11,0.00
2017,04,03,06,12,0.00
2017,04,03,06,13,0.00
2017,04,03,06,14,-0.10
2017,04,03,06,15,-0.10
2017,04,03,06,16,-0.10
2017,04,03,06,17,-0.10
2017,04,03,06,18,-0.10
2017,04,03,06,19,-0.10
2017,04,03,06,20,-0.10
2017,04,03,06,21,-0.10
2017,04,03,06,22,-0.10
2017,04,03,06,23,-0.10
2017,04,03,06,24,-0.10
2017,04,03,06,25,-0.20
2017,04,03,06,26,-0.20
2017,04,03,06,27,-0.20
2017,04,03,06,28,-0.20
2017,04,03,06,29,-0.20
2017,04,03,06,30,-0.20
2017,04,03,06,31,-0.20
2017,04,03,06,32,-0.20
2017,04,03,06,33,-0.20
2017,04,03,06,34,-0.20
2017,04,03,06,35,-0.20
2017,04,03,06,36,-0.20
2017,04,03,06,37,-0.20
2017,04,03,06,38,-0.20
2017,04,03,06,39,-0.20
2017,04,03,06,40,-0.20
2017,04,03,06,41,-0.20
2017,04,03,06,42,-0.20
2017,04,03,06,43,-0.20
2017,04,03,06,44,-0.20
2017,04,03,06,45,-0.20
2017,04,03,06,46,-0.20
2017,04,03,06,47,-0.20
2017,04,03,06,48,-0.30
2017,04,03,06,49,-0.20
2017,04,03,06,50,-0.20
2017,04,03,06,51,-0.20
2017,04,03,06,52,-0.20
2017,04,03,06,53,-0.20
2017,04,03,06,54,-0.30
2017,04,03,06,55,-0.30
2017,04,03,06,56,-0.30
2017,04,03,06,57,-0.30
2017,04,03,06,58,-0.30
2017,04,03,06,59,-0.30
2017,04,03,07,00,-0.30
2017,04,03,07,01,-0.30
2017,04,03,07,02,-0.30
2017,04,03,07,03,-0.30
2017,04,03,07,04,-0.30
2017,04,03,07,05,-0.30
2017,04,03,07,06,-0.30
2017,04,03,07,07,-0.30
2017,04,03,07,08,-0.30
2017,04,03,07,09,-0.30
2017,04,03,07,10,-0.30
2017,04,03,07,11,-0.30
2017,04,03,07,12,-0.30
2017,04,03,07,13,-0.30
2017,04,03,07,14,-0.30
2017,04,03,07,15,-0.30
2017,04,03,07,16,-0.30
2017,04,03,07,17,-0.30
2017,04,03,07,18,-0.30
2017,04,03,07,19,-0.30
2017,04,03,07,20,-0.20
2017,04,03,07,21,-0.20
2017,04,03,07,22,-0.20
2017,04,03,07,23,-0.20
2017,04,03,07,24,-0.20
2017,04,03,07,25,-0.20
2017,04,03,07,26,-0.20
2017,04,03,07,27,-0.20
2017,04,03,07,28,-0.20
2017,04,03,07,29,-0.20
2017,04,03,07,30,-0.20
2017,04,03,07,31,-0.20
2017,04,03,07,32,-0.10
2017,04,03,07,33,-0.10
2017,04,03,07,34,-0.10
2017,04,03,07,35,-0.10
2017,04,03,07,36,-0.10
2017,04,03,07,37,-0.10
2017,04,03,07,38,0.00
2017,04,03,07,39,0.00
2017,04,03,07,40,0.00
2017,04,03,07,41,0.10
2017,04,03,07,42,0.10
2017,04,03,07,43,0.10
2017,04,03,07,44,0.10
2017,04,03,07,45,0.10
2017,04,03,07,46,0.20
2017,04,03,07,47,0.20
2017,04,03,07,48,0.30
2017,04,03,07,49,0.30
2017,04,03,07,50,0.30
2017,04,03,07,51,0.40
2017,04,03,07,52,0.50
2017,04,03,07,53,0.50
2017,04,03,07,54,0.60
2017,04,03,07,55,0.70
2017,04,03,07,56,0.80
2017,04,03,07,57,0.90
2017,04,03,07,58,1.00
2017,04,03,07,59,1.10
2017,04,03,08,00,1.20
2017,04,03,08,01,1.20
2017,04,03,08,02,1.30
2017,04,03,08,03,1.30
2017,04,03,08,04,1.40
2017,04,03,08,05,1.50
2017,04,03,08,06,1.60
2017,04,03,08,07,1.60
2017,04,03,08,08,1.70
2017,04,03,08,09,1.70
2017,04,03,08,10,1.70
2017,04,03,08,11,1.70
2017,04,03,08,12,1.80
2017,04,03,08,13,1.90
2017,04,03,08,14,1.90
2017,04,03,08,15,2.00
2017,04,03,08,16,2.10
2017,04,03,08,17,2.20
2017,04,03,08,18,2.30
2017,04,03,08,19,2.30
2017,04,03,08,20,2.30
2017,04,03,08,21,2.40
2017,04,03,08,22,2.40
2017,04,03,08,23,2.50
2017,04,03,08,24,2.60
2017,04,03,08,25,2.70
2017,04,03,08,26,2.80
2017,04,03,08,27,2.90
2017,04,03,08,28,3.00
2017,04,03,08,29,3.10
2017,04,03,08,30,3.20
2017,04,03,08,31,3.30
2017,04,03,08,32,3.40
2017,04,03,08,33,3.50
2017,04,03,08,34,3.60
2017,04,03,08,35,3.70
2017,04,03,08,36,3.80
2017,04,03,08,37,3.90
2017,04,03,08,38,4.00
2017,04,03,08,39,4.10
2017,04,03,08,40,4.20
2017,04,03,08,41,4.30
2017,04,03,08,42,4.30
2017,04,03,08,43,4.30
2017,04,03,08,44,4.40
2017,04,03,08,45,4.50
2017,04,03,08,46,4.60
2017,04,03,08,47,4.70
2017,04,03,08,48,4.80
2017,04,03,08,49,4.80
2017,04,03,08,50,4.90
2017,04,03,08,51,5.00
2017,04,03,08,52,5.00
2017,04,03,08,53,5.10
2017,04,03,08,54,5.10
2017,04,03,08,55,5.20
2017,04,03,08,56,5.20
2017,04,03,08,57,5.30
2017,04,03,08,58,5.30
2017,04,03,08,59,5.20
2017,04,03,09,00,5.10
2017,04,03,09,01,5.00
2017,04,03,09,02,4.90
2017,04,03,09,03,4.80
2017,04,03,09,04,4.70
2017,04,03,09,05,4.60
2017,04,03,09,06,4.60
2017,04,03,09,07,4.60
2017,04,03,09,08,4.70
2017,04,03,09,09,4.70
2017,04,03,09,10,4.80
2017,04,03,09,11,4.80
2017,04,03,09,12,4.90
2017,04,03,09,13,4.90
2017,04,03,09,14,5.00
2017,04,03,09,15,5.10
2017,04,03,09,16,5.20
2017,04,03,09,17,5.30
2017,04,03,09,18,5.30
2017,04,03,09,19,5.40
2017,04,03,09,20,5.40
2017,04,03,09,21,5.50
2017,04,03,09,22,5.50
2017,04,03,09,23,5.50
2017,04,03,09,24,5.60
2017,04,03,09,25,5.70
2017,04,03,09,26,5.80
2017,04,03,09,27,5.80
2017,04,03,09,28,5.90
2017,04,03,09,29,5.90
2017,04,03,09,30,5.90
2017,04,03,09,31,5.90
2017,04,03,09,32,5.90
2017,04,03,09,33,5.90
2017,04,03,09,34,5.90
2017,04,03,09,35,5.90
2017,04,03,09,36,5.90
2017,04,03,09,37,5.90
2017,04,03,09,38,5.90
2017,04,03,09,39,5.90
2017,04,03,09,40,5.90
2017,04,03,09,41,5.90
2017,04,03,09,42,5.80
2017,04,03,09,43,5.80
2017,04,03,09,44,5.90
2017,04,03,09,45,5.90
2017,04,03,09,46,5.90
2017,04,03,09,47,5.90
2017,04,03,09,48,6.00
2017,04,03,09,49,6.00
2017,04,03,09,50,6.00
2017,04,03,09,51,6.00
2017,04,03,09,52,6.00
2017,04,03,09,53,6.10
2017,04,03,09,54,6.10
2017,04,03,09,55,6.10
2017,04,03,09,56,6.10
2017,04,03,09,57,6.10
2017,04,03,09,58,6.10
2017,04,03,09,59,6.10
2017,04,03,10,00,6.10
2017,04,03,10,01,6.10
2017,04,03,10,02,6.10
2017,04,03,10,03,6.10
2017,04,03,10,04,6.10
2017,04,03,10,05,6.10
2017,04,03,10,06,6.10
2017,04,03,10,07,6.10
2017,04,03,10,08,6.10
2017,04,03,10,09,6.10
2017,04,03,10,10,6.00
2017,04,03,10,11,6.00
2017,04,03,10,12,6.00
2017,04,03,10,13,6.00
2017,04,03,10,14,6.00
2017,04,03,10,15,6.00
2017,04,03,10,16,6.10
2017,04,03,10,17,6.10
2017,04,03,10,18,6.10
2017,04,03,10,19,6.10
2017,04,03,10,20,6.10
2017,04,03,10,21,6.10
2017,04,03,10,22,6.10
2017,04,03,10,23,6.10
2017,04,03,10,24,6.10
2017,04,03,10,25,6.10
2017,04,03,10,26,6.10
2017,04,03,10,27,6.20
2017,04,03,10,28,6.20
2017,04,03,10,29,6.20
2017,04,03,10,30,6.20
2017,04,03,10,31,6.20
2017,04,03,10,32,6.20
2017,04,03,10,33,6.20
2017,04,03,10,34,6.10
2017,04,03,10,35,6.10
2017,04,03,10,36,6.10
2017,04,03,10,37,6.10
2017,04,03,10,38,6.00
2017,04,03,10,39,6.00
2017,04,03,10,40,6.00
2017,04,03,10,41,6.00
2017,04,03,10,42,6.00
2017,04,03,10,43,6.10
2017,04,03,10,44,6.20
2017,04,03,10,45,6.40
2017,04,03,10,46,6.50
2017,04,03,10,47,6.60
2017,04,03,10,48,6.70
2017,04,03,10,49,6.80
2017,04,03,10,50,6.90
2017,04,03,10,51,6.90
2017,04,03,10,52,6.90
2017,04,03,10,53,6.90
2017,04,03,10,54,6.90
2017,04,03,10,55,6.90
2017,04,03,10,56,6.90
2017,04,03,10,57,6.90
2017,04,03,10,58,7.00
2017,04,03,10,59,7.00
2017,04,03,11,00,7.10
2017,04,03,11,01,7.10
2017,04,03,11,02,7.20
2017,04,03,11,03,7.20
2017,04,03,11,04,7.20
2017,04,03,11,05,7.30
2017,04,03,11,06,7.20
2017,04,03,11,07,7.20
2017,04,03,11,08,7.10
2017,04,03,11,09,7.10
2017,04,03,11,10,7.10
2017,04,03,11,11,7.20
2017,04,03,11,12,7.10
2017,04,03,11,13,7.10
2017,04,03,11,14,7.00
2017,04,03,11,15,6.90
2017,04,03,11,16,6.80
2017,04,03,11,17,6.80
2017,04,03,11,18,6.70
2017,04,03,11,19,6.70
2017,04,03,11,20,6.70
2017,04,03,11,21,6.60
2017,04,03,11,22,6.60
2017,04,03,11,23,6.60
2017,04,03,11,24,6.60
2017,04,03,11,25,6.60
2017,04,03,11,26,6.60
2017,04,03,11,27,6.70
2017,04,03,11,28,6.80
2017,04,03,11,29,6.90
2017,04,03,11,30,7.00
2017,04,03,11,31,7.10
2017,04,03,11,32,7.20
2017,04,03,11,33,7.20
2017,04,03,11,34,7.20
2017,04,03,11,35,7.20
2017,04,03,11,36,7.20
2017,04,03,11,37,7.20
2017,04,03,11,38,7.30
2017,04,03,11,39,7.30
2017,04,03,11,40,7.30
2017,04,03,11,41,7.40
2017,04,03,11,42,7.40
2017,04,03,11,43,7.40
2017,04,03,11,44,7.40
2017,04,03,11,45,7.40
2017,04,03,11,46,7.50
2017,04,03,11,47,7.50
2017,04,03,11,48,7.60
2017,04,03,11,49,7.70
2017,04,03,11,50,7.70
2017,04,03,11,51,7.80
2017,04,03,11,52,7.80
2017,04,03,11,53,7.90
2017,04,03,11,54,7.80
2017,04,03,11,55,7.80
2017,04,03,11,56,7.80
2017,04,03,11,57,7.80
2017,04,03,11,58,7.90
2017,04,03,11,59,7.90
2017,04,03,12,00,7.80
2017,04,03,12,01,7.80
2017,04,03,12,02,7.70
2017,04,03,12,03,7.70
2017,04,03,12,04,7.70
2017,04,03,12,05,7.70
2017,04,03,12,06,7.60
2017,04,03,12,07,7.50
2017,04,03,12,08,7.40
2017,04,03,12,09,7.30
2017,04,03,12,10,7.30
2017,04,03,12,11,7.30
2017,04,03,12,12,7.30
2017,04,03,12,13,7.30
2017,04,03,12,14,7.30
2017,04,03,12,15,7.30
2017,04,03,12,16,7.30
2017,04,03,12,17,7.30
2017,04,03,12,18,7.30
2017,04,03,12,19,7.40
2017,04,03,12,20,7.50
2017,04,03,12,21,7.50
2017,04,03,12,22,7.60
2017,04,03,12,23,7.60
2017,04,03,12,24,7.70
2017,04,03,12,25,7.70
2017,04,03,12,26,7.70
2017,04,03,12,27,7.70
2017,04,03,12,28,7.70
2017,04,03,12,29,7.70
2017,04,03,12,30,7.70
2017,04,03,12,31,7.70
2017,04,03,12,32,7.70
2017,04,03,12,33,7.70
2017,04,03,12,34,7.70
2017,04,03,12,35,7.70
2017,04,03,12,36,7.70
2017,04,03,12,37,7.70
2017,04,03,12,38,7.80
2017,04,03,12,39,7.80
2017,04,03,12,40,7.80
2017,04,03,12,41,7.90
2017,04,03,12,42,7.90
2017,04,03,12,43,8.00
2017,04,03,12,44,8.00
2017,04,03,12,45,8.10
2017,04,03,12,46,8.20
2017,04,03,12,47,8.20
2017,04,03,12,48,8.30
2017,04,03,12,49,8.40
2017,04,03,12,50,8.40
2017,04,03,12,51,8.50
2017,04,03,12,52,8.60
2017,04,03,12,53,8.70
2017,04,03,12,54,8.70
2017,04,03,12,55,8.80
2017,04,03,12,56,8.80
2017,04,03,12,57,8.90
2017,04,03,12,58,9.00
2017,04,03,12,59,9.00
2017,04,03,13,00,9.10
2017,04,03,13,01,9.10
2017,04,03,13,02,9.10
2017,04,03,13,03,9.10
2017,04,03,13,04,9.10
2017,04,03,13,05,9.10
2017,04,03,13,06,9.20
2017,04,03,13,07,9.20
2017,04,03,13,08,9.20
2017,04,03,13,09,9.20
2017,04,03,13,10,9.30
2017,04,03,13,11,9.30
2017,04,03,13,12,9.40
2017,04,03,13,13,9.40
2017,04,03,13,14,9.40
2017,04,03,13,15,9.40
2017,04,03,13,16,9.40
2017,04,03,13,17,9.40
2017,04,03,13,18,9.40
2017,04,03,13,19,9.40
2017,04,03,13,20,9.30
2017,04,03,13,21,9.30
2017,04,03,13,22,9.30
2017,04,03,13,23,9.20
2017,04,03,13,24,9.20
2017,04,03,13,25,9.20
2017,04,03,13,26,9.30
2017,04,03,13,27,9.40
2017,04,03,13,28,9.50
2017,04,03,13,29,9.50
2017,04,03,13,30,9.50
2017,04,03,13,31,9.40
2017,04,03,13,32,9.40
2017,04,03,13,33,9.30
2017,04,03,13,34,9.40
2017,04,03,13,35,9.40
2017,04,03,13,36,9.50
2017,04,03,13,37,9.50
2017,04,03,13,38,9.50
2017,04,03,13,39,9.50
2017,04,03,13,40,9.40
2017,04,03,13,41,9.40
2017,04,03,13,42,9.30
2017,04,03,13,43,9.30
2017,04,03,13,44,9.30
2017,04,03,13,45,9.20
2017,04,03,13,46,9.20
2017,04,03,13,47,9.30
2017,04,03,13,48,9.30
2017,04,03,13,49,9.30
2017,04,03,13,50,9.30
2017,04,03,13,51,9.30
2017,04,03,13,52,9.30
2017,04,03,13,53,9.30
2017,04,03,13,54,9.30
2017,04,03,13,55,9.30
2017,04,03,13,56,9.30
2017,04,03,13,57,9.30
2017,04,03,13,58,9.30
2017,04,03,13,59,9.30
2017,04,03,14,00,9.40
2017,04,03,14,01,9.50
2017,04,03,14,02,9.50
2017,04,03,14,03,9.50
2017,04,03,14,04,9.50
2017,04,03,14,05,9.40
2017,04,03,14,06,9.40
2017,04,03,14,07,9.50
2017,04,03,14,08,9.60
2017,04,03,14,09,9.70
2017,04,03,14,10,9.80
2017,04,03,14,11,9.80
2017,04,03,14,12,9.90
2017,04,03,14,13,9.90
2017,04,03,14,14,10.00
2017,04,03,14,15,10.10
2017,04,03,14,16,10.20
2017,04,03,14,17,10.10
2017,04,03,14,18,10.00
2017,04,03,14,19,10.00
2017,04,03,14,20,10.00
2017,04,03,14,21,9.90
2017,04,03,14,22,9.90
2017,04,03,14,23,9.90
2017,04,03,14,24,9.90
2017,04,03,14,25,9.90
2017,04,03,14,26,10.00
2017,04,03,14,27,10.00
2017,04,03,14,28,10.10
2017,04,03,14,29,10.10
2017,04,03,14,30,10.10
2017,04,03,14,31,10.10
2017,04,03,14,32,10.00
2017,04,03,14,33,10.00
2017,04,03,14,34,10.00
2017,04,03,14,35,10.10
2017,04,03,14,36,10.10
2017,04,03,14,37,10.20
2017,04,03,14,38,10.30
2017,04,03,14,39,10.30
2017,04,03,14,40,10.30
2017,04,03,14,41,10.40
2017,04,03,14,42,10.30
2017,04,03,14,43,10.30
2017,04,03,14,44,10.20
2017,04,03,14,45,10.10
2017,04,03,14,46,10.00
2017,04,03,14,47,9.90
2017,04,03,14,48,9.90
2017,04,03,14,49,9.90
2017,04,03,14,50,9.90
2017,04,03,14,51,9.80
2017,04,03,14,52,9.70
2017,04,03,14,53,9.70
2017,04,03,14,54,9.70
2017,04,03,14,55,9.70
2017,04,03,14,56,9.70
2017,04,03,14,57,9.60
2017,04,03,14,58,9.60
2017,04,03,14,59,9.70
2017,04,03,15,00,9.70
2017,04,03,15,01,9.80
2017,04,03,15,02,9.80
2017,04,03,15,03,9.80
2017,04,03,15,04,9.80
2017,04,03,15,05,9.80
2017,04,03,15,06,9.70
2017,04,03,15,07,9.60
2017,04,03,15,08,9.60
2017,04,03,15,09,9.50
2017,04,03,15,10,9.40
2017,04,03,15,11,9.40
2017,04,03,15,12,9.30
2017,04,03,15,13,9.30
2017,04,03,15,14,9.30
2017,04,03,15,15,9.30
2017,04,03,15,16,9.40
2017,04,03,15,17,9.40
2017,04,03,15,18,9.50
2017,04,03,15,19,9.60
2017,04,03,15,20,9.70
2017,04,03,15,21,9.70
2017,04,03,15,22,9.70
2017,04,03,15,23,9.60
2017,04,03,15,24,9.50
2017,04,03,15,25,9.40
2017,04,03,15,26,9.30
2017,04,03,15,27,9.30
2017,04,03,15,28,9.30
2017,04,03,15,29,9.30
2017,04,03,15,30,9.50
2017,04,03,15,31,9.50
2017,04,03,15,32,9.50
2017,04,03,15,33,9.50
2017,04,03,15,34,9.50
2017,04,03,15,35,9.50
2017,04,03,15,36,9.50
2017,04,03,15,37,9.60
2017,04,03,15,38,9.60
2017,04,03,15,39,9.70
2017,04,03,15,40,9.70
2017,04,03,15,41,9.60
2017,04,03,15,42,9.50
2017,04,03,15,43,9.40
2017,04,03,15,44,9.30
2017,04,03,15,45,9.30
2017,04,03,15,46,9.30
2017,04,03,15,47,9.30
2017,04,03,15,48,9.30
2017,04,03,15,49,9.30
2017,04,03,15,50,9.30
2017,04,03,15,51,9.30
2017,04,03,15,52,9.30
2017,04,03,15,53,9.30
2017,04,03,15,54,9.30
2017,04,03,15,55,9.30
2017,04,03,15,56,9.30
2017,04,03,15,57,9.30
2017,04,03,15,58,9.30
2017,04,03,15,59,9.20
2017,04,03,16,00,9.10
2017,04,03,16,01,9.10
2017,04,03,16,02,9.10
2017,04,03,16,03,9.10
2017,04,03,16,04,9.10
2017,04,03,16,05,9.10
2017,04,03,16,06,9.10
2017,04,03,16,07,9.10
2017,04,03,16,08,9.10
2017,04,03,16,09,9.10
2017,04,03,16,10,9.10
2017,04,03,16,11,9.10
2017,04,03,16,12,9.10
2017,04,03,16,13,9.20
2017,04,03,16,14,9.20
2017,04,03,16,15,9.20
2017,04,03,16,16,9.30
2017,04,03,16,17,9.30
2017,04,03,16,18,9.40
2017,04,03,16,19,9.50
2017,04,03,16,20,9.60
2017,04,03,16,21,9.70
2017,04,03,16,22,9.80
2017,04,03,16,23,9.90
2017,04,03,16,24,9.90
2017,04,03,16,25,10.00
2017,04,03,16,26,10.00
2017,04,03,16,27,10.00
2017,04,03,16,28,10.00
2017,04,03,16,29,9.90
2017,04,03,16,30,9.80
2017,04,03,16,31,9.80
2017,04,03,16,32,9.70
2017,04,03,16,33,9.70
2017,04,03,16,34,9.70
2017,04,03,16,35,9.60
2017,04,03,16,36,9.50
2017,04,03,16,37,9.50
2017,04,03,16,38,9.40
2017,04,03,16,39,9.30
2017,04,03,16,40,9.30
2017,04,03,16,41,9.40
2017,04,03,16,42,9.40
2017,04,03,16,43,9.50
2017,04,03,16,44,9.50
2017,04,03,16,45,9.60
2017,04,03,16,46,9.60
2017,04,03,16,47,9.70
2017,04,03,16,48,9.70
2017,04,03,16,49,9.70
2017,04,03,16,50,9.60
2017,04,03,16,51,9.60
2017,04,03,16,52,9.70
2017,04,03,16,53,9.70
2017,04,03,16,54,9.70
2017,04,03,16,55,9.80
2017,04,03,16,56,9.80
2017,04,03,16,57,9.80
2017,04,03,16,58,9.80
2017,04,03,16,59,9.80
2017,04,03,17,00,9.80
2017,04,03,17,01,9.90
2017,04,03,17,02,9.90
2017,04,03,17,03,10.00
2017,04,03,17,04,10.00
2017,04,03,17,05,10.10
2017,04,03,17,06,10.10
2017,04,03,17,07,10.10
2017,04,03,17,08,10.10
2017,04,03,17,09,10.00
2017,04,03,17,10,10.00
2017,04,03,17,11,10.00
2017,04,03,17,12,9.90
2017,04,03,17,13,9.80
2017,04,03,17,14,9.70
2017,04,03,17,15,9.70
2017,04,03,17,16,9.60
2017,04,03,17,17,9.60
2017,04,03,17,18,9.60
2017,04,03,17,19,9.60
2017,04,03,17,20,9.60
2017,04,03,17,21,9.60
2017,04,03,17,22,9.60
2017,04,03,17,23,9.60
2017,04,03,17,24,9.60
2017,04,03,17,25,9.50
2017,04,03,17,26,9.50
2017,04,03,17,27,9.50
2017,04,03,17,28,9.50
2017,04,03,17,29,9.60
2017,04,03,17,30,9.60
2017,04,03,17,31,9.70
2017,04,03,17,32,9.70
2017,04,03,17,33,9.70
2017,04,03,17,34,9.80
2017,04,03,17,35,9.80
2017,04,03,17,36,9.80
2017,04,03,17,37,9.80
2017,04,03,17,38,9.80
2017,04,03,17,39,9.80
2017,04,03,17,40,9.80
2017,04,03,17,41,9.80
2017,04,03,17,42,9.80
2017,04,03,17,43,9.80
2017,04,03,17,44,9.80
2017,04,03,17,45,9.80
2017,04,03,17,46,9.80
2017,04,03,17,47,9.80
2017,04,03,17,48,9.80
2017,04,03,17,49,9.80
2017,04,03,17,50,9.80
2017,04,03,17,51,9.80
2017,04,03,17,52,9.80
2017,04,03,17,53,9.70
2017,04,03,17,54,9.70
2017,04,03,17,55,9.70
2017,04,03,17,56,9.70
2017,04,03,17,57,9.70
2017,04,03,17,58,9.70
2017,04,03,17,59,9.70
2017,04,03,18,00,9.70
2017,04,03,18,01,9.70